iso_date,Year,Hour,Min,DOY,POS_DOY,Lat,Lon,BP,Ts,Ta,has_bp,has_ts,has_ta,BuoyID,Buoy_Type,Buoy_Owner,Logistics,Hemisphere
2021-09-18T15:20:26Z,2021,15,20,261.6392,261.6392,87.48251,-17.77664,-999.0,-999.0,-999.0,no,no,no,300025010120440,unknown,unknown,unknown,North
2021-09-18T16:01:29Z,2021,16,1,261.6677,261.6677,87.48212,-17.85037,-999.0,-999.0,-999.0,no,no,no,300025010120440,unknown,unknown,unknown,North
2021-09-18T17:00:05Z,2021,17,0,261.7084,261.7084,87.48218,-17.96964,-999.0,-999.0,-999.0,no,no,no,300025010120440,unknown,unknown,unknown,North
2021-09-18T18:00:17Z,2021,18,0,261.7502,261.7502,87.48253,-18.11769,-999.0,-999.0,-999.0,no,no,no,300025010120440,unknown,unknown,unknown,North
2021-09-18T19:00:02Z,2021,19,0,261.7917,261.7917,87.48453,-18.25694,-999.0,-999.0,-999.0,no,no,no,300025010120440,unknown,unknown,unknown,North
2021-09-18T20:00:05Z,2021,20,0,261.8334,261.8334,87.4873,-18.41659,-999.0,-999.0,-999.0,no,no,no,300025010120440,unknown,unknown,unknown,North
2021-09-18T21:00:00Z,2021,21,0,261.875,261.875,87.49054,-18.57545,-999.0,-999.0,-999.0,no,no,no,300025010120440,unknown,unknown,unknown,North
2021-09-18T22:00:20Z,2021,22,0,261.9169,261.9169,87.49341,-18.71993,-999.0,-999.0,-999.0,no,no,no,300025010120440,unknown,unknown,unknown,North
2021-09-18T22:59:57Z,2021,23,0,261.9583,261.9583,87.49557,-18.84979,-999.0,-999.0,-999.0,no,no,no,300025010120440,unknown,unknown,unknown,North
2021-09-19T00:00:25Z,2021,0,0,262.0003,262.0003,87.49678,-18.98101,-999.0,-999.0,-999.0,no,no,no,300025010120440,unknown,unknown,unknown,North
2021-09-19T01:00:02Z,2021,1,0,262.0417,262.0417,87.49697,-19.10745,-999.0,-999.0,-999.0,no,no,no,300025010120440,unknown,unknown,unknown,North
2021-09-19T02:00:05Z,2021,2,0,262.0834,262.0834,87.49617,-19.23632,-999.0,-999.0,-999.0,no,no,no,300025010120440,unknown,unknown,unknown,North
2021-09-19T03:00:00Z,2021,3,0,262.125,262.125,87.49427,-19.37591,-999.0,-999.0,-999.0,no,no,no,300025010120440,unknown,unknown,unknown,North
2021-09-19T04:00:02Z,2021,4,0,262.1667,262.1667,87.49192,-19.55286,-999.0,-999.0,-999.0,no,no,no,300025010120440,unknown,unknown,unknown,North
2021-09-19T04:59:57Z,2021,5,0,262.2083,262.2083,87.48999,-19.76937,-999.0,-999.0,-999.0,no,no,no,300025010120440,unknown,unknown,unknown,North
2021-09-19T06:00:00Z,2021,6,0,262.25,262.25,87.48933,-20.00937,-999.0,-999.0,-999.0,no,no,no,300025010120440,unknown,unknown,unknown,North
2021-09-19T07:00:02Z,2021,7,0,262.2917,262.2917,87.48918,-20.24125,-999.0,-999.0,-999.0,no,no,no,300025010120440,unknown,unknown,unknown,North
2021-09-19T08:00:23Z,2021,8,0,262.3336,262.3336,87.4894,-20.44389,-999.0,-999.0,-999.0,no,no,no,300025010120440,unknown,unknown,unknown,North
2021-09-19T09:00:00Z,2021,9,0,262.375,262.375,87.48946,-20.61094,-999.0,-999.0,-999.0,no,no,no,300025010120440,unknown,unknown,unknown,North
2021-09-19T10:00:02Z,2021,10,0,262.4167,262.4167,87.48909,-20.75088,-999.0,-999.0,-999.0,no,no,no,300025010120440,unknown,unknown,unknown,North
2021-09-19T11:00:23Z,2021,11,0,262.4586,262.4586,87.48815,-20.86889,-999.0,-999.0,-999.0,no,no,no,300025010120440,unknown,unknown,unknown,North
2021-09-19T12:00:00Z,2021,12,0,262.5,262.5,87.48678,-20.9692,-999.0,-999.0,-999.0,no,no,no,300025010120440,unknown,unknown,unknown,North
2021-09-19T13:00:02Z,2021,13,0,262.5417,262.5417,87.48546,-21.04934,-999.0,-999.0,-999.0,no,no,no,300025010120440,unknown,unknown,unknown,North
2021-09-19T14:00:05Z,2021,14,0,262.5834,262.5834,87.48437,-21.11603,-999.0,-999.0,-999.0,no,no,no,300025010120440,unknown,unknown,unknown,North
2021-09-19T15:00:00Z,2021,15,0,262.625,262.625,87.48347,-21.17729,-999.0,-999.0,-999.0,no,no,no,300025010120440,unknown,unknown,unknown,North
2021-09-19T16:00:02Z,2021,16,0,262.6667,262.6667,87.48301,-21.23872,-999.0,-999.0,-999.0,no,no,no,300025010120440,unknown,unknown,unknown,North
2021-09-19T16:59:57Z,2021,17,0,262.7083,262.7083,87.4833,-21.29208,-999.0,-999.0,-999.0,no,no,no,300025010120440,unknown,unknown,unknown,North
2021-09-19T18:00:00Z,2021,18,0,262.75,262.75,87.48428,-21.33448,-999.0,-999.0,-999.0,no,no,no,300025010120440,unknown,unknown,unknown,North
2021-09-19T19:00:02Z,2021,19,0,262.7917,262.7917,87.48596,-21.35773,-999.0,-999.0,-999.0,no,no,no,300025010120440,unknown,unknown,unknown,North
2021-09-19T20:00:05Z,2021,20,0,262.8334,262.8334,87.48817,-21.35968,-999.0,-999.0,-999.0,no,no,no,300025010120440,unknown,unknown,unknown,North
2021-09-19T21:00:00Z,2021,21,0,262.875,262.875,87.49038,-21.31475,-999.0,-999.0,-999.0,no,no,no,300025010120440,unknown,unknown,unknown,North
2021-09-19T22:00:02Z,2021,22,0,262.9167,262.9167,87.49231,-21.23043,-999.0,-999.0,-999.0,no,no,no,300025010120440,unknown,unknown,unknown,North
2021-09-19T23:00:14Z,2021,23,0,262.9585,262.9585,87.49381,-21.12174,-999.0,-999.0,-999.0,no,no,no,300025010120440,unknown,unknown,unknown,North
2021-09-20T00:00:00Z,2021,0,0,263.0,263.0,87.49461,-21.00623,-999.0,-999.0,-999.0,no,no,no,300025010120440,unknown,unknown,unknown,North
2021-09-20T01:00:02Z,2021,1,0,263.0417,263.0417,87.49485,-20.88905,-999.0,-999.0,-999.0,no,no,no,300025010120440,unknown,unknown,unknown,North
2021-09-20T02:00:23Z,2021,2,0,263.0836,263.0836,87.4947,-20.78175,-999.0,-999.0,-999.0,no,no,no,300025010120440,unknown,unknown,unknown,North
2021-09-20T03:00:00Z,2021,3,0,263.125,263.125,87.49473,-20.68346,-999.0,-999.0,-999.0,no,no,no,300025010120440,unknown,unknown,unknown,North
2021-09-20T04:00:02Z,2021,4,0,263.1667,263.1667,87.4953,-20.59224,-999.0,-999.0,-999.0,no,no,no,300025010120440,unknown,unknown,unknown,North
2021-09-20T04:59:57Z,2021,5,0,263.2083,263.2083,87.49619,-20.50875,-999.0,-999.0,-999.0,no,no,no,300025010120440,unknown,unknown,unknown,North
2021-09-20T06:00:00Z,2021,6,0,263.25,263.25,87.49741,-20.43108,-999.0,-999.0,-999.0,no,no,no,300025010120440,unknown,unknown,unknown,North
2021-09-20T07:00:20Z,2021,7,0,263.2919,263.2919,87.49907,-20.35275,-999.0,-999.0,-999.0,no,no,no,300025010120440,unknown,unknown,unknown,North
2021-09-20T07:59:57Z,2021,8,0,263.3333,263.3333,87.5011,-20.25918,-999.0,-999.0,-999.0,no,no,no,300025010120440,unknown,unknown,unknown,North
2021-09-20T09:00:00Z,2021,9,0,263.375,263.375,87.50316,-20.14469,-999.0,-999.0,-999.0,no,no,no,300025010120440,unknown,unknown,unknown,North
2021-09-20T10:00:20Z,2021,10,0,263.4169,263.4169,87.50484,-20.00927,-999.0,-999.0,-999.0,no,no,no,300025010120440,unknown,unknown,unknown,North
2021-09-20T10:59:57Z,2021,11,0,263.4583,263.4583,87.50618,-19.86465,-999.0,-999.0,-999.0,no,no,no,300025010120440,unknown,unknown,unknown,North
2021-09-20T12:00:00Z,2021,12,0,263.5,263.5,87.50692,-19.71335,-999.0,-999.0,-999.0,no,no,no,300025010120440,unknown,unknown,unknown,North
2021-09-20T13:00:02Z,2021,13,0,263.5417,263.5417,87.50714,-19.56973,-999.0,-999.0,-999.0,no,no,no,300025010120440,unknown,unknown,unknown,North
2021-09-20T14:00:05Z,2021,14,0,263.5834,263.5834,87.50701,-19.43097,-999.0,-999.0,-999.0,no,no,no,300025010120440,unknown,unknown,unknown,North
2021-09-20T15:00:25Z,2021,15,0,263.6253,263.6253,87.50668,-19.30583,-999.0,-999.0,-999.0,no,no,no,300025010120440,unknown,unknown,unknown,North
2021-09-20T16:00:02Z,2021,16,0,263.6667,263.6667,87.50641,-19.1954,-999.0,-999.0,-999.0,no,no,no,300025010120440,unknown,unknown,unknown,North
2021-09-20T16:59:57Z,2021,17,0,263.7083,263.7083,87.50632,-19.09323,-999.0,-999.0,-999.0,no,no,no,300025010120440,unknown,unknown,unknown,North
2021-09-20T18:00:00Z,2021,18,0,263.75,263.75,87.50637,-18.9947,-999.0,-999.0,-999.0,no,no,no,300025010120440,unknown,unknown,unknown,North
2021-09-20T19:00:20Z,2021,19,0,263.7919,263.7919,87.50695,-18.91011,-999.0,-999.0,-999.0,no,no,no,300025010120440,unknown,unknown,unknown,North
2021-09-20T19:59:57Z,2021,20,0,263.8333,263.8333,87.50845,-18.82628,-999.0,-999.0,-999.0,no,no,no,300025010120440,unknown,unknown,unknown,North
2021-09-20T21:00:00Z,2021,21,0,263.875,263.875,87.51099,-18.72622,-999.0,-999.0,-999.0,no,no,no,300025010120440,unknown,unknown,unknown,North
2021-09-20T22:00:02Z,2021,22,0,263.9167,263.9167,87.51347,-18.59241,-999.0,-999.0,-999.0,no,no,no,300025010120440,unknown,unknown,unknown,North
2021-09-20T23:00:23Z,2021,23,0,263.9586,263.9586,87.51515,-18.45124,-999.0,-999.0,-999.0,no,no,no,300025010120440,unknown,unknown,unknown,North
2021-09-21T00:00:00Z,2021,0,0,264.0,264.0,87.51584,-18.29902,-999.0,-999.0,-999.0,no,no,no,300025010120440,unknown,unknown,unknown,North
2021-09-21T01:00:20Z,2021,1,0,264.0419,264.0419,87.51557,-18.14266,-999.0,-999.0,-999.0,no,no,no,300025010120440,unknown,unknown,unknown,North
2021-09-21T01:59:57Z,2021,2,0,264.0833,264.0833,87.51453,-18.00009,-999.0,-999.0,-999.0,no,no,no,300025010120440,unknown,unknown,unknown,North
2021-09-21T03:00:17Z,2021,3,0,264.1252,264.1252,87.51316,-17.88408,-999.0,-999.0,-999.0,no,no,no,300025010120440,unknown,unknown,unknown,North
2021-09-21T04:00:02Z,2021,4,0,264.1667,264.1667,87.51192,-17.79968,-999.0,-999.0,-999.0,no,no,no,300025010120440,unknown,unknown,unknown,North
2021-09-21T04:59:57Z,2021,5,0,264.2083,264.2083,87.51164,-17.73549,-999.0,-999.0,-999.0,no,no,no,300025010120440,unknown,unknown,unknown,North
2021-09-21T06:00:00Z,2021,6,0,264.25,264.25,87.51236,-17.68119,-999.0,-999.0,-999.0,no,no,no,300025010120440,unknown,unknown,unknown,North
2021-09-21T07:00:20Z,2021,7,0,264.2919,264.2919,87.5143,-17.63199,-999.0,-999.0,-999.0,no,no,no,300025010120440,unknown,unknown,unknown,North
2021-09-21T07:59:57Z,2021,8,0,264.3333,264.3333,87.51741,-17.57717,-999.0,-999.0,-999.0,no,no,no,300025010120440,unknown,unknown,unknown,North
2021-09-21T09:00:00Z,2021,9,0,264.375,264.375,87.52133,-17.50094,-999.0,-999.0,-999.0,no,no,no,300025010120440,unknown,unknown,unknown,North
2021-09-21T10:00:20Z,2021,10,0,264.4169,264.4169,87.52524,-17.39605,-999.0,-999.0,-999.0,no,no,no,300025010120440,unknown,unknown,unknown,North
2021-09-21T10:59:57Z,2021,11,0,264.4583,264.4583,87.52802,-17.27135,-999.0,-999.0,-999.0,no,no,no,300025010120440,unknown,unknown,unknown,North
2021-09-21T12:00:25Z,2021,12,0,264.5003,264.5003,87.52956,-17.13907,-999.0,-999.0,-999.0,no,no,no,300025010120440,unknown,unknown,unknown,North
2021-09-21T13:00:02Z,2021,13,0,264.5417,264.5417,87.53013,-17.01774,-999.0,-999.0,-999.0,no,no,no,300025010120440,unknown,unknown,unknown,North
2021-09-21T14:00:23Z,2021,14,0,264.5836,264.5836,87.53008,-16.90813,-999.0,-999.0,-999.0,no,no,no,300025010120440,unknown,unknown,unknown,North
2021-09-21T15:00:00Z,2021,15,0,264.625,264.625,87.53003,-16.83184,-999.0,-999.0,-999.0,no,no,no,300025010120440,unknown,unknown,unknown,North
2021-09-21T16:00:20Z,2021,16,0,264.6669,264.6669,87.53016,-16.7725,-999.0,-999.0,-999.0,no,no,no,300025010120440,unknown,unknown,unknown,North
2021-09-21T16:59:57Z,2021,17,0,264.7083,264.7083,87.53104,-16.72173,-999.0,-999.0,-999.0,no,no,no,300025010120440,unknown,unknown,unknown,North
2021-09-21T18:00:17Z,2021,18,0,264.7502,264.7502,87.53302,-16.67115,-999.0,-999.0,-999.0,no,no,no,300025010120440,unknown,unknown,unknown,North
2021-09-21T19:00:02Z,2021,19,0,264.7917,264.7917,87.53627,-16.60165,-999.0,-999.0,-999.0,no,no,no,300025010120440,unknown,unknown,unknown,North
2021-09-21T20:00:23Z,2021,20,0,264.8336,264.8336,87.54015,-16.50959,-999.0,-999.0,-999.0,no,no,no,300025010120440,unknown,unknown,unknown,North
2021-09-21T21:00:00Z,2021,21,0,264.875,264.875,87.54386,-16.39332,-999.0,-999.0,-999.0,no,no,no,300025010120440,unknown,unknown,unknown,North
2021-09-21T22:00:20Z,2021,22,0,264.9169,264.9169,87.54709,-16.25551,-999.0,-999.0,-999.0,no,no,no,300025010120440,unknown,unknown,unknown,North
2021-09-21T22:59:57Z,2021,23,0,264.9583,264.9583,87.54948,-16.10376,-999.0,-999.0,-999.0,no,no,no,300025010120440,unknown,unknown,unknown,North
2021-09-22T00:00:25Z,2021,0,0,265.0003,265.0003,87.55081,-15.9426,-999.0,-999.0,-999.0,no,no,no,300025010120440,unknown,unknown,unknown,North
2021-09-22T01:00:02Z,2021,1,0,265.0417,265.0417,87.55069,-15.79677,-999.0,-999.0,-999.0,no,no,no,300025010120440,unknown,unknown,unknown,North
2021-09-22T02:00:05Z,2021,2,0,265.0834,265.0834,87.55023,-15.67586,-999.0,-999.0,-999.0,no,no,no,300025010120440,unknown,unknown,unknown,North
2021-09-22T03:00:25Z,2021,3,0,265.1253,265.1253,87.54946,-15.58123,-999.0,-999.0,-999.0,no,no,no,300025010120440,unknown,unknown,unknown,North
2021-09-22T04:00:02Z,2021,4,0,265.1667,265.1667,87.54921,-15.51048,-999.0,-999.0,-999.0,no,no,no,300025010120440,unknown,unknown,unknown,North
2021-09-22T04:59:57Z,2021,5,0,265.2083,265.2083,87.5493,-15.45376,-999.0,-999.0,-999.0,no,no,no,300025010120440,unknown,unknown,unknown,North
2021-09-22T06:00:00Z,2021,6,0,265.25,265.25,87.54978,-15.402,-999.0,-999.0,-999.0,no,no,no,300025010120440,unknown,unknown,unknown,North
2021-09-22T07:00:20Z,2021,7,0,265.2919,265.2919,87.55001,-15.34432,-999.0,-999.0,-999.0,no,no,no,300025010120440,unknown,unknown,unknown,North
2021-09-22T07:59:57Z,2021,8,0,265.3333,265.3333,87.55016,-15.27846,-999.0,-999.0,-999.0,no,no,no,300025010120440,unknown,unknown,unknown,North
2021-09-22T09:00:00Z,2021,9,0,265.375,265.375,87.5502,-15.20166,-999.0,-999.0,-999.0,no,no,no,300025010120440,unknown,unknown,unknown,North
2021-09-22T10:00:20Z,2021,10,0,265.4169,265.4169,87.55074,-15.09768,-999.0,-999.0,-999.0,no,no,no,300025010120440,unknown,unknown,unknown,North
2021-09-22T10:59:57Z,2021,11,0,265.4583,265.4583,87.54919,-15.01059,-999.0,-999.0,-999.0,no,no,no,300025010120440,unknown,unknown,unknown,North
2021-09-22T12:00:17Z,2021,12,0,265.5002,265.5002,87.54688,-14.908,-999.0,-999.0,-999.0,no,no,no,300025010120440,unknown,unknown,unknown,North
2021-09-22T13:00:02Z,2021,13,0,265.5417,265.5417,87.54315,-14.82587,-999.0,-999.0,-999.0,no,no,no,300025010120440,unknown,unknown,unknown,North
2021-09-22T14:00:05Z,2021,14,0,265.5834,265.5834,87.53807,-14.77154,-999.0,-999.0,-999.0,no,no,no,300025010120440,unknown,unknown,unknown,North
2021-09-22T15:00:17Z,2021,15,0,265.6252,265.6252,87.53272,-14.75005,-999.0,-999.0,-999.0,no,no,no,300025010120440,unknown,unknown,unknown,North
2021-09-22T16:00:02Z,2021,16,0,265.6667,265.6667,87.52769,-14.75284,-999.0,-999.0,-999.0,no,no,no,300025010120440,unknown,unknown,unknown,North
2021-09-22T17:00:23Z,2021,17,0,265.7086,265.7086,87.52252,-14.77592,-999.0,-999.0,-999.0,no,no,no,300025010120440,unknown,unknown,unknown,North
2021-09-22T18:00:00Z,2021,18,0,265.75,265.75,87.51815,-14.80539,-999.0,-999.0,-999.0,no,no,no,300025010120440,unknown,unknown,unknown,North
2021-09-22T19:00:20Z,2021,19,0,265.7919,265.7919,87.51446,-14.82584,-999.0,-999.0,-999.0,no,no,no,300025010120440,unknown,unknown,unknown,North
2021-09-22T19:59:57Z,2021,20,0,265.8333,265.8333,87.51141,-14.82774,-999.0,-999.0,-999.0,no,no,no,300025010120440,unknown,unknown,unknown,North
2021-09-22T21:00:00Z,2021,21,0,265.875,265.875,87.50857,-14.80296,-999.0,-999.0,-999.0,no,no,no,300025010120440,unknown,unknown,unknown,North
2021-09-22T22:00:02Z,2021,22,0,265.9167,265.9167,87.50539,-14.76418,-999.0,-999.0,-999.0,no,no,no,300025010120440,unknown,unknown,unknown,North
2021-09-22T23:00:23Z,2021,23,0,265.9586,265.9586,87.50155,-14.71738,-999.0,-999.0,-999.0,no,no,no,300025010120440,unknown,unknown,unknown,North
2021-09-23T00:00:00Z,2021,0,0,266.0,266.0,87.4977,-14.65978,-999.0,-999.0,-999.0,no,no,no,300025010120440,unknown,unknown,unknown,North
2021-09-23T01:00:28Z,2021,1,0,266.042,266.042,87.49246,-14.6125,-999.0,-999.0,-999.0,no,no,no,300025010120440,unknown,unknown,unknown,North
2021-09-23T01:59:57Z,2021,2,0,266.0833,266.0833,87.48703,-14.59036,-999.0,-999.0,-999.0,no,no,no,300025010120440,unknown,unknown,unknown,North
2021-09-23T03:00:00Z,2021,3,0,266.125,266.125,87.48174,-14.59312,-999.0,-999.0,-999.0,no,no,no,300025010120440,unknown,unknown,unknown,North
2021-09-23T04:00:20Z,2021,4,0,266.1669,266.1669,87.477,-14.61674,-999.0,-999.0,-999.0,no,no,no,300025010120440,unknown,unknown,unknown,North
2021-09-23T04:59:57Z,2021,5,0,266.2083,266.2083,87.47256,-14.65503,-999.0,-999.0,-999.0,no,no,no,300025010120440,unknown,unknown,unknown,North
2021-09-23T06:00:00Z,2021,6,0,266.25,266.25,87.46925,-14.69977,-999.0,-999.0,-999.0,no,no,no,300025010120440,unknown,unknown,unknown,North
2021-09-23T07:00:20Z,2021,7,0,266.2919,266.2919,87.46699,-14.73502,-999.0,-999.0,-999.0,no,no,no,300025010120440,unknown,unknown,unknown,North
2021-09-23T07:59:57Z,2021,8,0,266.3333,266.3333,87.46479,-14.73887,-999.0,-999.0,-999.0,no,no,no,300025010120440,unknown,unknown,unknown,North
2021-09-23T09:00:00Z,2021,9,0,266.375,266.375,87.46236,-14.71397,-999.0,-999.0,-999.0,no,no,no,300025010120440,unknown,unknown,unknown,North
2021-09-23T10:00:02Z,2021,10,0,266.4167,266.4167,87.45922,-14.67169,-999.0,-999.0,-999.0,no,no,no,300025010120440,unknown,unknown,unknown,North
2021-09-23T11:00:23Z,2021,11,0,266.4586,266.4586,87.45548,-14.62013,-999.0,-999.0,-999.0,no,no,no,300025010120440,unknown,unknown,unknown,North
2021-09-23T12:00:00Z,2021,12,0,266.5,266.5,87.45091,-14.56763,-999.0,-999.0,-999.0,no,no,no,300025010120440,unknown,unknown,unknown,North
2021-09-23T13:00:02Z,2021,13,0,266.5417,266.5417,87.4455,-14.52086,-999.0,-999.0,-999.0,no,no,no,300025010120440,unknown,unknown,unknown,North
2021-09-23T14:00:23Z,2021,14,0,266.5836,266.5836,87.43979,-14.49187,-999.0,-999.0,-999.0,no,no,no,300025010120440,unknown,unknown,unknown,North
2021-09-23T15:00:00Z,2021,15,0,266.625,266.625,87.43458,-14.48205,-999.0,-999.0,-999.0,no,no,no,300025010120440,unknown,unknown,unknown,North
2021-09-23T16:00:02Z,2021,16,0,266.6667,266.6667,87.43011,-14.48906,-999.0,-999.0,-999.0,no,no,no,300025010120440,unknown,unknown,unknown,North
2021-09-23T16:59:57Z,2021,17,0,266.7083,266.7083,87.42662,-14.50468,-999.0,-999.0,-999.0,no,no,no,300025010120440,unknown,unknown,unknown,North
2021-09-23T18:00:00Z,2021,18,0,266.75,266.75,87.42397,-14.51732,-999.0,-999.0,-999.0,no,no,no,300025010120440,unknown,unknown,unknown,North
2021-09-23T19:00:20Z,2021,19,0,266.7919,266.7919,87.42207,-14.52086,-999.0,-999.0,-999.0,no,no,no,300025010120440,unknown,unknown,unknown,North
2021-09-23T19:59:57Z,2021,20,0,266.8333,266.8333,87.42067,-14.50809,-999.0,-999.0,-999.0,no,no,no,300025010120440,unknown,unknown,unknown,North
2021-09-23T21:00:00Z,2021,21,0,266.875,266.875,87.41956,-14.47311,-999.0,-999.0,-999.0,no,no,no,300025010120440,unknown,unknown,unknown,North
2021-09-23T22:00:02Z,2021,22,0,266.9167,266.9167,87.41832,-14.41551,-999.0,-999.0,-999.0,no,no,no,300025010120440,unknown,unknown,unknown,North
2021-09-23T23:00:23Z,2021,23,0,266.9586,266.9586,87.41648,-14.34153,-999.0,-999.0,-999.0,no,no,no,300025010120440,unknown,unknown,unknown,North
2021-09-24T00:00:00Z,2021,0,0,267.0,267.0,87.41377,-14.26107,-999.0,-999.0,-999.0,no,no,no,300025010120440,unknown,unknown,unknown,North
2021-09-24T01:00:20Z,2021,1,0,267.0419,267.0419,87.41013,-14.18922,-999.0,-999.0,-999.0,no,no,no,300025010120440,unknown,unknown,unknown,North
2021-09-24T01:59:57Z,2021,2,0,267.0833,267.0833,87.40614,-14.14092,-999.0,-999.0,-999.0,no,no,no,300025010120440,unknown,unknown,unknown,North
2021-09-24T03:00:00Z,2021,3,0,267.125,267.125,87.40221,-14.1159,-999.0,-999.0,-999.0,no,no,no,300025010120440,unknown,unknown,unknown,North
2021-09-24T04:00:28Z,2021,4,0,267.167,267.167,87.39916,-14.11196,-999.0,-999.0,-999.0,no,no,no,300025010120440,unknown,unknown,unknown,North
2021-09-24T05:00:05Z,2021,5,0,267.2084,267.2084,87.39643,-14.11768,-999.0,-999.0,-999.0,no,no,no,300025010120440,unknown,unknown,unknown,North
2021-09-24T06:00:25Z,2021,6,0,267.2503,267.2503,87.3947,-14.12206,-999.0,-999.0,-999.0,no,no,no,300025010120440,unknown,unknown,unknown,North
2021-09-24T07:00:02Z,2021,7,0,267.2917,267.2917,87.39375,-14.11983,-999.0,-999.0,-999.0,no,no,no,300025010120440,unknown,unknown,unknown,North
2021-09-24T08:00:23Z,2021,8,0,267.3336,267.3336,87.39309,-14.10363,-999.0,-999.0,-999.0,no,no,no,300025010120440,unknown,unknown,unknown,North
2021-09-24T09:00:00Z,2021,9,0,267.375,267.375,87.39231,-14.06917,-999.0,-999.0,-999.0,no,no,no,300025010120440,unknown,unknown,unknown,North
2021-09-24T10:00:28Z,2021,10,0,267.417,267.417,87.3909,-14.01643,-999.0,-999.0,-999.0,no,no,no,300025010120440,unknown,unknown,unknown,North
2021-09-24T10:59:57Z,2021,11,0,267.4583,267.4583,87.38886,-13.95323,-999.0,-999.0,-999.0,no,no,no,300025010120440,unknown,unknown,unknown,North
2021-09-24T12:00:25Z,2021,12,0,267.5003,267.5003,87.38591,-13.88674,-999.0,-999.0,-999.0,no,no,no,300025010120440,unknown,unknown,unknown,North
2021-09-24T13:00:02Z,2021,13,0,267.5417,267.5417,87.38231,-13.82704,-999.0,-999.0,-999.0,no,no,no,300025010120440,unknown,unknown,unknown,North
2021-09-24T14:00:23Z,2021,14,0,267.5836,267.5836,87.37832,-13.78136,-999.0,-999.0,-999.0,no,no,no,300025010120440,unknown,unknown,unknown,North
2021-09-24T15:00:00Z,2021,15,0,267.625,267.625,87.37455,-13.75584,-999.0,-999.0,-999.0,no,no,no,300025010120440,unknown,unknown,unknown,North
2021-09-24T16:00:28Z,2021,16,0,267.667,267.667,87.37153,-13.7431,-999.0,-999.0,-999.0,no,no,no,300025010120440,unknown,unknown,unknown,North
2021-09-24T17:00:05Z,2021,17,0,267.7084,267.7084,87.36884,-13.73384,-999.0,-999.0,-999.0,no,no,no,300025010120440,unknown,unknown,unknown,North
2021-09-24T18:00:34Z,2021,18,0,267.7504,267.7504,87.36722,-13.72204,-999.0,-999.0,-999.0,no,no,no,300025010120440,unknown,unknown,unknown,North
2021-09-24T19:00:02Z,2021,19,0,267.7917,267.7917,87.36604,-13.69557,-999.0,-999.0,-999.0,no,no,no,300025010120440,unknown,unknown,unknown,North
2021-09-24T20:00:23Z,2021,20,0,267.8336,267.8336,87.36528,-13.65342,-999.0,-999.0,-999.0,no,no,no,300025010120440,unknown,unknown,unknown,North
2021-09-24T21:00:00Z,2021,21,0,267.875,267.875,87.36431,-13.59703,-999.0,-999.0,-999.0,no,no,no,300025010120440,unknown,unknown,unknown,North
2021-09-24T22:00:28Z,2021,22,0,267.917,267.917,87.36249,-13.52183,-999.0,-999.0,-999.0,no,no,no,300025010120440,unknown,unknown,unknown,North
2021-09-24T22:59:57Z,2021,23,0,267.9583,267.9583,87.35991,-13.44106,-999.0,-999.0,-999.0,no,no,no,300025010120440,unknown,unknown,unknown,North
2021-09-25T00:00:25Z,2021,0,0,268.0003,268.0003,87.3564,-13.35843,-999.0,-999.0,-999.0,no,no,no,300025010120440,unknown,unknown,unknown,North
2021-09-25T01:00:02Z,2021,1,0,268.0417,268.0417,87.3523,-13.28512,-999.0,-999.0,-999.0,no,no,no,300025010120440,unknown,unknown,unknown,North
2021-09-25T02:00:23Z,2021,2,0,268.0836,268.0836,87.34782,-13.22624,-999.0,-999.0,-999.0,no,no,no,300025010120440,unknown,unknown,unknown,North
2021-09-25T03:00:00Z,2021,3,0,268.125,268.125,87.34362,-13.18652,-999.0,-999.0,-999.0,no,no,no,300025010120440,unknown,unknown,unknown,North
2021-09-25T04:00:02Z,2021,4,0,268.1667,268.1667,87.33988,-13.15795,-999.0,-999.0,-999.0,no,no,no,300025010120440,unknown,unknown,unknown,North
2021-09-25T04:59:57Z,2021,5,0,268.2083,268.2083,87.33688,-13.14198,-999.0,-999.0,-999.0,no,no,no,300025010120440,unknown,unknown,unknown,North
2021-09-25T06:00:25Z,2021,6,0,268.2503,268.2503,87.33464,-13.12341,-999.0,-999.0,-999.0,no,no,no,300025010120440,unknown,unknown,unknown,North
2021-09-25T07:00:02Z,2021,7,0,268.2917,268.2917,87.3335,-13.11073,-999.0,-999.0,-999.0,no,no,no,300025010120440,unknown,unknown,unknown,North
2021-09-25T08:00:23Z,2021,8,0,268.3336,268.3336,87.33273,-13.08299,-999.0,-999.0,-999.0,no,no,no,300025010120440,unknown,unknown,unknown,North
2021-09-25T09:00:00Z,2021,9,0,268.375,268.375,87.33205,-13.04239,-999.0,-999.0,-999.0,no,no,no,300025010120440,unknown,unknown,unknown,North
2021-09-25T10:00:28Z,2021,10,0,268.417,268.417,87.33105,-12.99045,-999.0,-999.0,-999.0,no,no,no,300025010120440,unknown,unknown,unknown,North
2021-09-25T10:59:57Z,2021,11,0,268.4583,268.4583,87.32919,-12.93072,-999.0,-999.0,-999.0,no,no,no,300025010120440,unknown,unknown,unknown,North
2021-09-25T12:00:25Z,2021,12,0,268.5003,268.5003,87.32689,-12.8762,-999.0,-999.0,-999.0,no,no,no,300025010120440,unknown,unknown,unknown,North
2021-09-25T13:00:02Z,2021,13,0,268.5417,268.5417,87.32396,-12.83028,-999.0,-999.0,-999.0,no,no,no,300025010120440,unknown,unknown,unknown,North